This demonstration page uses our WeatherBlox Daily Observations layout. Learn more.

Left ArrowRight Arrow

Hourly Observations for May 15, 2019

Temp ( °F °C ) Dew Point ( °F °C ) Humidity (%) Winds ( mph kmh ) Pressure ( in mb ) Visibility ( mi km ) Precip ( " mm )
12:52 am 00:52 Clear 66 18.9 58 14.4 75 75 SE 5 7 29.88 1012 10 16 0.00 0.00
1:52 am 01:52 Partly Cloudy 65 18.3 58 14.4 78 78 Calm 29.88 1012 10 16 0.00 0.00
2:52 am 02:52 Mostly Cloudy 62 16.7 57 13.9 84 84 Calm 29.89 1012 10 16 0.00 0.00
3:52 am 03:52 Mostly Cloudy 62 16.7 57 13.9 84 84 Calm 29.90 1012 10 16 0.00 0.00
4:52 am 04:52 Mostly Cloudy 61 16.1 57 13.9 87 87 Calm 29.90 1012 10 16 0.00 0.00
5:52 am 05:52 Mostly Cloudy 60 15.6 56 13.3 86 86 Calm 29.90 1012 10 16 0.00 0.00
6:52 am 06:52 Mostly Cloudy 60 15.6 56 13.3 86 86 E 5 7 29.91 1013 10 16 0.00 0.00
7:52 am 07:52 Mostly Cloudy 61 16.1 56 13.3 84 84 Calm 29.92 1013 10 16 0.00 0.00
8:52 am 08:52 Mostly Cloudy 64 17.8 58 14.4 81 81 SSE 5 7 29.93 1014 10 16 0.00 0.00
9:52 am 09:52 Mostly Cloudy 70 21.1 60 15.6 71 71 NW 5 7 29.96 1014 10 16 0.00 0.00
10:52 am 10:52 Mostly Cloudy 73 22.8 61 16.1 66 66 ESE 6 9 29.95 1014 10 16 0.00 0.00
11:52 am 11:52 Mostly Cloudy 77 25 59 15 54 54 ESE 6 9 29.93 1014 10 16 0.00 0.00
12:52 pm 12:52 Partly Cloudy 80 26.7 58 14.4 47 47 ESE 10 17 29.91 1013 10 16 0.00 0.00
1:52 pm 13:52 Partly Cloudy 82 27.8 57 13.9 42 42 E 9 15 29.89 1012 10 16 0.00 0.00
2:52 pm 14:52 Partly Cloudy 83 28.3 55 12.8 38 38 SE 9 15 29.87 1011 10 16 0.00 0.00
3:52 pm 15:52 Partly Cloudy 85 29.4 56 13.3 37 37 SSE 10 17 29.85 1011 10 16 0.00 0.00
4:52 pm 16:52 Partly Cloudy 85 29.4 54 12.2 35 35 SSE 13 20 29.83 1010 10 16 0.00 0.00
5:52 pm 17:52 Partly Cloudy 85 29.4 54 12.2 35 35 S 14 22 29.83 1010 10 16 0.00 0.00
6:52 pm 18:52 Mostly Sunny 84 28.9 57 13.9 40 40 S 15 24 29.81 1010 10 16 0.00 0.00
7:52 pm 19:52 Mostly Sunny 82 27.8 57 13.9 42 42 S 14 22 29.80 1009 10 16 0.00 0.00
8:52 pm 20:52 Mostly Clear 78 25.6 58 14.4 50 50 SSE 9 15 29.80 1009 10 16 0.00 0.00
9:52 pm 21:52 Clear 74 23.3 59 15 60 60 SSE 10 17 29.80 1009 10 16 0.00 0.00
10:52 pm 22:52 Clear 74 23.3 59 15 60 60 SSE 10 17 29.80 1009 10 16 0.00 0.00
11:52 pm 23:52 Clear 73 22.8 61 16.1 66 66 SSE 10 17 29.78 1009 10 16 0.00 0.00

Powered by AerisWeather